Year,Month,Day,Hour,Minute,Value (Times are PST for barometer in hPa)
2015,08,29,00,00,1004.78
2015,08,29,00,01,1004.78
2015,08,29,00,02,1004.71
2015,08,29,00,03,1004.71
2015,08,29,00,04,1004.71
2015,08,29,00,05,1004.74
2015,08,29,00,06,1004.71
2015,08,29,00,07,1004.67
2015,08,29,00,08,1004.64
2015,08,29,00,09,1004.57
2015,08,29,00,10,1004.53
2015,08,29,00,11,1004.44
2015,08,29,00,12,1004.47
2015,08,29,00,13,1004.47
2015,08,29,00,14,1004.47
2015,08,29,00,15,1004.46
2015,08,29,00,16,1004.37
2015,08,29,00,17,1004.29
2015,08,29,00,18,1004.20
2015,08,29,00,19,1004.20
2015,08,29,00,20,1004.20
2015,08,29,00,21,1004.20
2015,08,29,00,22,1004.19
2015,08,29,00,23,1004.13
2015,08,29,00,24,1004.13
2015,08,29,00,25,1004.16
2015,08,29,00,26,1004.06
2015,08,29,00,27,1004.03
2015,08,29,00,28,1004.03
2015,08,29,00,29,1004.06
2015,08,29,00,30,1004.03
2015,08,29,00,31,1004.00
2015,08,29,00,32,1003.93
2015,08,29,00,33,1003.90
2015,08,29,00,34,1003.93
2015,08,29,00,35,1003.90
2015,08,29,00,36,1003.90
2015,08,29,00,37,1003.86
2015,08,29,00,38,1003.83
2015,08,29,00,39,1003.79
2015,08,29,00,40,1003.79
2015,08,29,00,41,1003.76
2015,08,29,00,42,1003.73
2015,08,29,00,43,1003.69
2015,08,29,00,44,1003.66
2015,08,29,00,45,1003.66
2015,08,29,00,46,1003.59
2015,08,29,00,47,1003.52
2015,08,29,00,48,1003.56
2015,08,29,00,49,1003.59
2015,08,29,00,50,1003.56
2015,08,29,00,51,1003.52
2015,08,29,00,52,1003.49
2015,08,29,00,53,1003.46
2015,08,29,00,54,1003.49
2015,08,29,00,55,1003.42
2015,08,29,00,56,1003.39
2015,08,29,00,57,1003.32
2015,08,29,00,58,1003.29
2015,08,29,00,59,1003.29
2015,08,29,01,00,1003.25
2015,08,29,01,01,1003.25
2015,08,29,01,02,1003.24
2015,08,29,01,03,1003.15
2015,08,29,01,04,1003.12
2015,08,29,01,05,1003.15
2015,08,29,01,06,1003.08
2015,08,29,01,07,1003.12
2015,08,29,01,08,1003.05
2015,08,29,01,09,1003.01
2015,08,29,01,10,1002.98
2015,08,29,01,11,1002.94
2015,08,29,01,12,1002.85
2015,08,29,01,13,1002.85
2015,08,29,01,14,1002.81
2015,08,29,01,15,1002.77
2015,08,29,01,16,1002.71
2015,08,29,01,17,1002.71
2015,08,29,01,18,1002.71
2015,08,29,01,19,1002.71
2015,08,29,01,20,1002.71
2015,08,29,01,21,1002.68
2015,08,29,01,22,1002.61
2015,08,29,01,23,1002.64
2015,08,29,01,24,1002.57
2015,08,29,01,25,1002.51
2015,08,29,01,26,1002.53
2015,08,29,01,27,1002.47
2015,08,29,01,28,1002.41
2015,08,29,01,29,1002.41
2015,08,29,01,30,1002.34
2015,08,29,01,31,1002.30
2015,08,29,01,32,1002.27
2015,08,29,01,33,1002.27
2015,08,29,01,34,1002.24
2015,08,29,01,35,1002.17
2015,08,29,01,36,1002.20
2015,08,29,01,37,1002.20
2015,08,29,01,38,1002.18
2015,08,29,01,39,1002.27
2015,08,29,01,40,1002.27
2015,08,29,01,41,1002.27
2015,08,29,01,42,1002.24
2015,08,29,01,43,1002.17
2015,08,29,01,44,1002.12
2015,08,29,01,45,1002.03
2015,08,29,01,46,1002.06
2015,08,29,01,47,1002.00
2015,08,29,01,48,1001.97
2015,08,29,01,49,1002.00
2015,08,29,01,50,1001.97
2015,08,29,01,51,1002.00
2015,08,29,01,52,1001.93
2015,08,29,01,53,1001.90
2015,08,29,01,54,1001.93
2015,08,29,01,55,1001.90
2015,08,29,01,56,1001.86
2015,08,29,01,57,1001.86
2015,08,29,01,58,1001.83
2015,08,29,01,59,1001.80
2015,08,29,02,00,1001.83
2015,08,29,02,01,1001.80
2015,08,29,02,02,1001.80
2015,08,29,02,03,1001.76
2015,08,29,02,04,1001.73
2015,08,29,02,05,1001.66
2015,08,29,02,06,1001.66
2015,08,29,02,07,1001.66
2015,08,29,02,08,1001.66
2015,08,29,02,09,1001.63
2015,08,29,02,10,1001.56
2015,08,29,02,11,1001.52
2015,08,29,02,12,1001.52
2015,08,29,02,13,1001.46
2015,08,29,02,14,1001.39
2015,08,29,02,15,1001.39
2015,08,29,02,16,1001.32
2015,08,29,02,17,1001.32
2015,08,29,02,18,1001.25
2015,08,29,02,19,1001.22
2015,08,29,02,20,1001.22
2015,08,29,02,21,1001.19
2015,08,29,02,22,1001.18
2015,08,29,02,23,1001.08
2015,08,29,02,24,1001.02
2015,08,29,02,25,1000.98
2015,08,29,02,26,1000.95
2015,08,29,02,27,1000.95
2015,08,29,02,28,1000.95
2015,08,29,02,29,1000.95
2015,08,29,02,30,1000.95
2015,08,29,02,31,1000.95
2015,08,29,02,32,1000.95
2015,08,29,02,33,1000.85
2015,08,29,02,34,1000.85
2015,08,29,02,35,1000.85
2015,08,29,02,36,1000.81
2015,08,29,02,37,1000.75
2015,08,29,02,38,1000.75
2015,08,29,02,39,1000.68
2015,08,29,02,40,1000.64
2015,08,29,02,41,1000.58
2015,08,29,02,42,1000.58
2015,08,29,02,43,1000.51
2015,08,29,02,44,1000.54
2015,08,29,02,45,1000.51
2015,08,29,02,46,1000.48
2015,08,29,02,47,1000.44
2015,08,29,02,48,1000.41
2015,08,29,02,49,1000.31
2015,08,29,02,50,1000.34
2015,08,29,02,51,1000.31
2015,08,29,02,52,1000.24
2015,08,29,02,53,1000.27
2015,08,29,02,54,1000.24
2015,08,29,02,55,1000.23
2015,08,29,02,56,1000.14
2015,08,29,02,57,1000.14
2015,08,29,02,58,1000.20
2015,08,29,02,59,1000.10
2015,08,29,03,00,1000.14
2015,08,29,03,01,1000.07
2015,08,29,03,02,1000.07
2015,08,29,03,03,1000.07
2015,08,29,03,04,1000.00
2015,08,29,03,05,1000.00
2015,08,29,03,06,1000.00
2015,08,29,03,07,1000.00
2015,08,29,03,08,1000.00
2015,08,29,03,09,999.93
2015,08,29,03,10,999.97
2015,08,29,03,11,999.96
2015,08,29,03,12,999.83
2015,08,29,03,13,999.83
2015,08,29,03,14,999.79
2015,08,29,03,15,999.70
2015,08,29,03,16,999.70
2015,08,29,03,17,999.73
2015,08,29,03,18,999.66
2015,08,29,03,19,999.63
2015,08,29,03,20,999.59
2015,08,29,03,21,999.53
2015,08,29,03,22,999.49
2015,08,29,03,23,999.49
2015,08,29,03,24,999.46
2015,08,29,03,25,999.46
2015,08,29,03,26,999.43
2015,08,29,03,27,999.39
2015,08,29,03,28,999.39
2015,08,29,03,29,999.35
2015,08,29,03,30,999.26
2015,08,29,03,31,999.26
2015,08,29,03,32,999.26
2015,08,29,03,33,999.22
2015,08,29,03,34,999.26
2015,08,29,03,35,999.19
2015,08,29,03,36,999.15
2015,08,29,03,37,999.09
2015,08,29,03,38,999.05
2015,08,29,03,39,999.09
2015,08,29,03,40,999.05
2015,08,29,03,41,999.02
2015,08,29,03,42,999.02
2015,08,29,03,43,998.99
2015,08,29,03,44,998.92
2015,08,29,03,45,998.95
2015,08,29,03,46,998.95
2015,08,29,03,47,998.99
2015,08,29,03,48,998.95
2015,08,29,03,49,998.95
2015,08,29,03,50,998.95
2015,08,29,03,51,998.92
2015,08,29,03,52,998.92
2015,08,29,03,53,998.88
2015,08,29,03,54,998.82
2015,08,29,03,55,998.78
2015,08,29,03,56,998.78
2015,08,29,03,57,998.82
2015,08,29,03,58,998.78
2015,08,29,03,59,998.82
2015,08,29,04,00,998.82
2015,08,29,04,01,998.78
2015,08,29,04,02,998.71
2015,08,29,04,03,998.68
2015,08,29,04,04,998.61
2015,08,29,04,05,998.54
2015,08,29,04,06,998.51
2015,08,29,04,07,998.48
2015,08,29,04,08,998.51
2015,08,29,04,09,998.54
2015,08,29,04,10,998.54
2015,08,29,04,11,998.51
2015,08,29,04,12,998.51
2015,08,29,04,13,998.44
2015,08,29,04,14,998.48
2015,08,29,04,15,998.48
2015,08,29,04,16,998.44
2015,08,29,04,17,998.41
2015,08,29,04,18,998.34
2015,08,29,04,19,998.38
2015,08,29,04,20,998.31
2015,08,29,04,21,998.27
2015,08,29,04,22,998.24
2015,08,29,04,23,998.21
2015,08,29,04,24,998.17
2015,08,29,04,25,998.14
2015,08,29,04,26,998.07
2015,08,29,04,27,998.00
2015,08,29,04,28,997.99
2015,08,29,04,29,997.90
2015,08,29,04,30,997.87
2015,08,29,04,31,997.87
2015,08,29,04,32,997.87
2015,08,29,04,33,997.80
2015,08,29,04,34,997.80
2015,08,29,04,35,997.77
2015,08,29,04,36,997.77
2015,08,29,04,37,997.70
2015,08,29,04,38,997.66
2015,08,29,04,39,997.60
2015,08,29,04,40,997.53
2015,08,29,04,41,997.46
2015,08,29,04,42,997.39
2015,08,29,04,43,997.46
2015,08,29,04,44,997.50
2015,08,29,04,45,997.50
2015,08,29,04,46,997.53
2015,08,29,04,47,997.53
2015,08,29,04,48,997.53
2015,08,29,04,49,997.56
2015,08,29,04,50,997.53
2015,08,29,04,51,997.50
2015,08,29,04,52,997.50
2015,08,29,04,53,997.53
2015,08,29,04,54,997.53
2015,08,29,04,55,997.45
2015,08,29,04,56,997.33
2015,08,29,04,57,997.33
2015,08,29,04,58,997.26
2015,08,29,04,59,997.29
2015,08,29,05,00,997.33
2015,08,29,05,01,997.33
2015,08,29,05,02,997.39
2015,08,29,05,03,997.36
2015,08,29,05,04,997.35
2015,08,29,05,05,997.22
2015,08,29,05,06,997.19
2015,08,29,05,07,997.19
2015,08,29,05,08,997.18
2015,08,29,05,09,997.09
2015,08,29,05,10,997.02
2015,08,29,05,11,997.02
2015,08,29,05,12,996.99
2015,08,29,05,13,996.99
2015,08,29,05,14,996.92
2015,08,29,05,15,996.92
2015,08,29,05,16,996.85
2015,08,29,05,17,996.85
2015,08,29,05,18,996.82
2015,08,29,05,19,996.85
2015,08,29,05,20,996.82
2015,08,29,05,21,996.82
2015,08,29,05,22,996.85
2015,08,29,05,23,996.89
2015,08,29,05,24,996.89
2015,08,29,05,25,996.85
2015,08,29,05,26,996.85
2015,08,29,05,27,996.78
2015,08,29,05,28,996.75
2015,08,29,05,29,996.68
2015,08,29,05,30,996.72
2015,08,29,05,31,996.72
2015,08,29,05,32,996.72
2015,08,29,05,33,996.72
2015,08,29,05,34,996.75
2015,08,29,05,35,996.68
2015,08,29,05,36,996.60
2015,08,29,05,37,996.51
2015,08,29,05,38,996.48
2015,08,29,05,39,996.48
2015,08,29,05,40,996.51
2015,08,29,05,41,996.55
2015,08,29,05,42,996.55
2015,08,29,05,43,996.55
2015,08,29,05,44,996.61
2015,08,29,05,45,996.68
2015,08,29,05,46,996.68
2015,08,29,05,47,996.68
2015,08,29,05,48,996.72
2015,08,29,05,49,996.78
2015,08,29,05,50,996.82
2015,08,29,05,51,996.83
2015,08,29,05,52,996.92
2015,08,29,05,53,996.92
2015,08,29,05,54,996.92
2015,08,29,05,55,996.99
2015,08,29,05,56,997.02
2015,08,29,05,57,996.94
2015,08,29,05,58,996.81
2015,08,29,05,59,996.68
2015,08,29,06,00,996.61
2015,08,29,06,01,996.58
2015,08,29,06,02,996.60
2015,08,29,06,03,996.48
2015,08,29,06,04,996.45
2015,08,29,06,05,996.38
2015,08,29,06,06,996.38
2015,08,29,06,07,996.34
2015,08,29,06,08,996.34
2015,08,29,06,09,996.24
2015,08,29,06,10,996.17
2015,08,29,06,11,996.14
2015,08,29,06,12,996.11
2015,08,29,06,13,996.01
2015,08,29,06,14,996.07
2015,08,29,06,15,996.06
2015,08,29,06,16,995.90
2015,08,29,06,17,995.86
2015,08,29,06,18,995.73
2015,08,29,06,19,995.73
2015,08,29,06,20,995.70
2015,08,29,06,21,995.70
2015,08,29,06,22,995.67
2015,08,29,06,23,995.70
2015,08,29,06,24,995.67
2015,08,29,06,25,995.67
2015,08,29,06,26,995.63
2015,08,29,06,27,995.60
2015,08,29,06,28,995.60
2015,08,29,06,29,995.53
2015,08,29,06,30,995.49
2015,08,29,06,31,995.39
2015,08,29,06,32,995.29
2015,08,29,06,33,995.29
2015,08,29,06,34,995.23
2015,08,29,06,35,995.19
2015,08,29,06,36,995.16
2015,08,29,06,37,995.12
2015,08,29,06,38,995.09
2015,08,29,06,39,995.02
2015,08,29,06,40,994.99
2015,08,29,06,41,994.96
2015,08,29,06,42,994.92
2015,08,29,06,43,994.72
2015,08,29,06,44,994.61
2015,08,29,06,45,994.48
2015,08,29,06,46,994.45
2015,08,29,06,47,994.39
2015,08,29,06,48,994.48
2015,08,29,06,49,994.48
2015,08,29,06,50,994.41
2015,08,29,06,51,994.38
2015,08,29,06,52,994.38
2015,08,29,06,53,994.35
2015,08,29,06,54,994.38
2015,08,29,06,55,994.45
2015,08,29,06,56,994.45
2015,08,29,06,57,994.45
2015,08,29,06,58,994.41
2015,08,29,06,59,994.38
2015,08,29,07,00,994.41
2015,08,29,07,01,994.30
2015,08,29,07,02,994.13
2015,08,29,07,03,993.87
2015,08,29,07,04,993.87
2015,08,29,07,05,993.94
2015,08,29,07,06,993.87
2015,08,29,07,07,993.80
2015,08,29,07,08,993.76
2015,08,29,07,09,993.56
2015,08,29,07,10,993.33
2015,08,29,07,11,993.33
2015,08,29,07,12,993.26
2015,08,29,07,13,993.30
2015,08,29,07,14,993.36
2015,08,29,07,15,993.36
2015,08,29,07,16,993.36
2015,08,29,07,17,993.33
2015,08,29,07,18,993.40
2015,08,29,07,19,993.40
2015,08,29,07,20,993.33
2015,08,29,07,21,993.33
2015,08,29,07,22,993.30
2015,08,29,07,23,993.26
2015,08,29,07,24,993.16
2015,08,29,07,25,992.91
2015,08,29,07,26,992.82
2015,08,29,07,27,992.72
2015,08,29,07,28,992.76
2015,08,29,07,29,992.92
2015,08,29,07,30,993.09
2015,08,29,07,31,993.09
2015,08,29,07,32,993.13
2015,08,29,07,33,993.16
2015,08,29,07,34,993.09
2015,08,29,07,35,993.03
2015,08,29,07,36,992.99
2015,08,29,07,37,992.99
2015,08,29,07,38,993.03
2015,08,29,07,39,993.13
2015,08,29,07,40,993.16
2015,08,29,07,41,993.27
2015,08,29,07,42,993.36
2015,08,29,07,43,993.33
2015,08,29,07,44,993.33
2015,08,29,07,45,993.35
2015,08,29,07,46,993.26
2015,08,29,07,47,993.19
2015,08,29,07,48,993.16
2015,08,29,07,49,993.19
2015,08,29,07,50,993.23
2015,08,29,07,51,993.30
2015,08,29,07,52,993.36
2015,08,29,07,53,993.40
2015,08,29,07,54,993.36
2015,08,29,07,55,993.36
2015,08,29,07,56,993.36
2015,08,29,07,57,993.41
2015,08,29,07,58,993.50
2015,08,29,07,59,993.50
2015,08,29,08,00,993.57
2015,08,29,08,01,993.60
2015,08,29,08,02,993.66
2015,08,29,08,03,993.57
2015,08,29,08,04,993.50
2015,08,29,08,05,993.58
2015,08,29,08,06,993.70
2015,08,29,08,07,993.74
2015,08,29,08,08,993.77
2015,08,29,08,09,993.77
2015,08,29,08,10,993.74
2015,08,29,08,11,993.70
2015,08,29,08,12,993.77
2015,08,29,08,13,993.74
2015,08,29,08,14,993.84
2015,08,29,08,15,993.84
2015,08,29,08,16,993.84
2015,08,29,08,17,993.74
2015,08,29,08,18,993.70
2015,08,29,08,19,993.63
2015,08,29,08,20,993.63
2015,08,29,08,21,993.63
2015,08,29,08,22,993.63
2015,08,29,08,23,993.67
2015,08,29,08,24,993.67
2015,08,29,08,25,993.80
2015,08,29,08,26,993.87
2015,08,29,08,27,993.84
2015,08,29,08,28,993.84
2015,08,29,08,29,993.84
2015,08,29,08,30,993.77
2015,08,29,08,31,993.74
2015,08,29,08,32,993.74
2015,08,29,08,33,993.70
2015,08,29,08,34,993.70
2015,08,29,08,35,993.70
2015,08,29,08,36,993.80
2015,08,29,08,37,993.71
2015,08,29,08,38,993.80
2015,08,29,08,39,993.91
2015,08,29,08,40,993.94
2015,08,29,08,41,993.97
2015,08,29,08,42,993.80
2015,08,29,08,43,993.80
2015,08,29,08,44,993.84
2015,08,29,08,45,993.87
2015,08,29,08,46,993.84
2015,08,29,08,47,993.84
2015,08,29,08,48,993.87
2015,08,29,08,49,993.91
2015,08,29,08,50,993.97
2015,08,29,08,51,993.94
2015,08,29,08,52,993.84
2015,08,29,08,53,993.80
2015,08,29,08,54,993.80
2015,08,29,08,55,993.74
2015,08,29,08,56,993.70
2015,08,29,08,57,993.67
2015,08,29,08,58,993.63
2015,08,29,08,59,993.60
2015,08,29,09,00,993.63
2015,08,29,09,01,993.70
2015,08,29,09,02,993.77
2015,08,29,09,03,993.77
2015,08,29,09,04,993.77
2015,08,29,09,05,993.80
2015,08,29,09,06,993.87
2015,08,29,09,07,993.84
2015,08,29,09,08,993.84
2015,08,29,09,09,993.91
2015,08,29,09,10,993.95
2015,08,29,09,11,994.04
2015,08,29,09,12,994.04
2015,08,29,09,13,994.14
2015,08,29,09,14,994.07
2015,08,29,09,15,994.11
2015,08,29,09,16,994.11
2015,08,29,09,17,994.14
2015,08,29,09,18,994.11
2015,08,29,09,19,994.07
2015,08,29,09,20,994.07
2015,08,29,09,21,994.07
2015,08,29,09,22,994.11
2015,08,29,09,23,994.18
2015,08,29,09,24,994.18
2015,08,29,09,25,994.18
2015,08,29,09,26,994.14
2015,08,29,09,27,994.07
2015,08,29,09,28,994.11
2015,08,29,09,29,994.12
2015,08,29,09,30,994.24
2015,08,29,09,31,994.21
2015,08,29,09,32,994.22
2015,08,29,09,33,994.31
2015,08,29,09,34,994.41
2015,08,29,09,35,994.45
2015,08,29,09,36,994.45
2015,08,29,09,37,994.41
2015,08,29,09,38,994.48
2015,08,29,09,39,994.48
2015,08,29,09,40,994.48
2015,08,29,09,41,994.38
2015,08,29,09,42,994.35
2015,08,29,09,43,994.31
2015,08,29,09,44,994.35
2015,08,29,09,45,994.41
2015,08,29,09,46,994.38
2015,08,29,09,47,994.31
2015,08,29,09,48,994.24
2015,08,29,09,49,994.28
2015,08,29,09,50,994.24
2015,08,29,09,51,994.21
2015,08,29,09,52,994.18
2015,08,29,09,53,994.28
2015,08,29,09,54,994.24
2015,08,29,09,55,994.31
2015,08,29,09,56,994.38
2015,08,29,09,57,994.41
2015,08,29,09,58,994.44
2015,08,29,09,59,994.31
2015,08,29,10,00,994.21
2015,08,29,10,01,994.21
2015,08,29,10,02,994.21
2015,08,29,10,03,994.24
2015,08,29,10,04,994.24
2015,08,29,10,05,994.14
2015,08,29,10,06,994.14
2015,08,29,10,07,994.21
2015,08,29,10,08,994.19
2015,08,29,10,09,994.31
2015,08,29,10,10,994.41
2015,08,29,10,11,994.34
2015,08,29,10,12,994.24
2015,08,29,10,13,994.18
2015,08,29,10,14,994.04
2015,08,29,10,15,994.14
2015,08,29,10,16,994.14
2015,08,29,10,17,994.11
2015,08,29,10,18,994.18
2015,08,29,10,19,994.14
2015,08,29,10,20,994.11
2015,08,29,10,21,994.11
2015,08,29,10,22,994.04
2015,08,29,10,23,994.01
2015,08,29,10,24,993.97
2015,08,29,10,25,994.04
2015,08,29,10,26,994.07
2015,08,29,10,27,994.04
2015,08,29,10,28,994.03
2015,08,29,10,29,993.94
2015,08,29,10,30,993.87
2015,08,29,10,31,993.87
2015,08,29,10,32,993.80
2015,08,29,10,33,993.80
2015,08,29,10,34,993.67
2015,08,29,10,35,993.67
2015,08,29,10,36,993.63
2015,08,29,10,37,993.70
2015,08,29,10,38,993.70
2015,08,29,10,39,993.70
2015,08,29,10,40,993.70
2015,08,29,10,41,993.74
2015,08,29,10,42,993.74
2015,08,29,10,43,993.74
2015,08,29,10,44,993.67
2015,08,29,10,45,993.67
2015,08,29,10,46,993.60
2015,08,29,10,47,993.47
2015,08,29,10,48,993.47
2015,08,29,10,49,993.47
2015,08,29,10,50,993.47
2015,08,29,10,51,993.47
2015,08,29,10,52,993.50
2015,08,29,10,53,993.57
2015,08,29,10,54,993.43
2015,08,29,10,55,993.36
2015,08,29,10,56,993.30
2015,08,29,10,57,993.23
2015,08,29,10,58,993.30
2015,08,29,10,59,993.36
2015,08,29,11,00,993.33
2015,08,29,11,01,993.40
2015,08,29,11,02,993.30
2015,08,29,11,03,993.23
2015,08,29,11,04,993.23
2015,08,29,11,05,993.33
2015,08,29,11,06,993.36
2015,08,29,11,07,993.23
2015,08,29,11,08,993.19
2015,08,29,11,09,993.19
2015,08,29,11,10,993.19
2015,08,29,11,11,993.19
2015,08,29,11,12,993.16
2015,08,29,11,13,993.06
2015,08,29,11,14,992.99
2015,08,29,11,15,992.92
2015,08,29,11,16,992.91
2015,08,29,11,17,992.82
2015,08,29,11,18,992.74
2015,08,29,11,19,992.62
2015,08,29,11,20,992.55
2015,08,29,11,21,992.45
2015,08,29,11,22,992.42
2015,08,29,11,23,992.38
2015,08,29,11,24,992.31
2015,08,29,11,25,992.14
2015,08,29,11,26,992.08
2015,08,29,11,27,992.01
2015,08,29,11,28,992.04
2015,08,29,11,29,992.11
2015,08,29,11,30,992.21
2015,08,29,11,31,992.28
2015,08,29,11,32,992.39
2015,08,29,11,33,992.58
2015,08,29,11,34,992.69
2015,08,29,11,35,992.72
2015,08,29,11,36,992.64
2015,08,29,11,37,992.52
2015,08,29,11,38,992.31
2015,08,29,11,39,992.25
2015,08,29,11,40,992.21
2015,08,29,11,41,992.18
2015,08,29,11,42,992.14
2015,08,29,11,43,992.08
2015,08,29,11,44,991.91
2015,08,29,11,45,991.81
2015,08,29,11,46,991.81
2015,08,29,11,47,991.84
2015,08,29,11,48,991.91
2015,08,29,11,49,991.94
2015,08,29,11,50,992.01
2015,08,29,11,51,992.04
2015,08,29,11,52,992.04
2015,08,29,11,53,992.01
2015,08,29,11,54,992.01
2015,08,29,11,55,991.98
2015,08,29,11,56,991.91
2015,08,29,11,57,991.86
2015,08,29,11,58,991.74
2015,08,29,11,59,991.81
2015,08,29,12,00,991.84
2015,08,29,12,01,991.84
2015,08,29,12,02,991.87
2015,08,29,12,03,991.87
2015,08,29,12,04,991.84
2015,08,29,12,05,991.81
2015,08,29,12,06,991.77
2015,08,29,12,07,991.77
2015,08,29,12,08,991.70
2015,08,29,12,09,991.67
2015,08,29,12,10,991.64
2015,08,29,12,11,991.70
2015,08,29,12,12,991.70
2015,08,29,12,13,991.70
2015,08,29,12,14,991.66
2015,08,29,12,15,991.50
2015,08,29,12,16,991.33
2015,08,29,12,17,991.19
2015,08,29,12,18,991.06
2015,08,29,12,19,990.99
2015,08,29,12,20,990.93
2015,08,29,12,21,990.89
2015,08,29,12,22,990.79
2015,08,29,12,23,990.69
2015,08,29,12,24,990.65
2015,08,29,12,25,990.65
2015,08,29,12,26,990.62
2015,08,29,12,27,990.62
2015,08,29,12,28,990.65
2015,08,29,12,29,990.65
2015,08,29,12,30,990.72
2015,08,29,12,31,990.72
2015,08,29,12,32,990.76
2015,08,29,12,33,990.76
2015,08,29,12,34,990.79
2015,08,29,12,35,990.79
2015,08,29,12,36,990.72
2015,08,29,12,37,990.79
2015,08,29,12,38,990.79
2015,08,29,12,39,990.82
2015,08,29,12,40,990.82
2015,08,29,12,41,990.86
2015,08,29,12,42,990.93
2015,08,29,12,43,990.99
2015,08,29,12,44,991.03
2015,08,29,12,45,990.99
2015,08,29,12,46,991.09
2015,08,29,12,47,991.16
2015,08,29,12,48,991.09
2015,08,29,12,49,991.26
2015,08,29,12,50,991.37
2015,08,29,12,51,991.43
2015,08,29,12,52,991.40
2015,08,29,12,53,991.37
2015,08,29,12,54,991.40
2015,08,29,12,55,991.50
2015,08,29,12,56,991.50
2015,08,29,12,57,991.53
2015,08,29,12,58,991.58
2015,08,29,12,59,991.77
2015,08,29,13,00,991.94
2015,08,29,13,01,991.98
2015,08,29,13,02,992.01
2015,08,29,13,03,992.04
2015,08,29,13,04,992.05
2015,08,29,13,05,992.21
2015,08,29,13,06,992.21
2015,08,29,13,07,992.18
2015,08,29,13,08,992.21
2015,08,29,13,09,992.21
2015,08,29,13,10,992.18
2015,08,29,13,11,992.08
2015,08,29,13,12,992.11
2015,08,29,13,13,992.21
2015,08,29,13,14,992.25
2015,08,29,13,15,992.28
2015,08,29,13,16,992.35
2015,08,29,13,17,992.35
2015,08,29,13,18,992.35
2015,08,29,13,19,992.04
2015,08,29,13,20,991.87
2015,08,29,13,21,991.94
2015,08,29,17,40,999.93
2015,08,29,17,41,999.97
2015,08,29,17,42,1000.00
2015,08,29,17,43,1000.00
2015,08,29,17,44,1000.00
2015,08,29,17,45,999.97
2015,08,29,17,46,1000.03
2015,08,29,17,47,1000.03
2015,08,29,17,48,1000.00
2015,08,29,17,49,1000.00
2015,08,29,17,50,999.97
2015,08,29,17,51,999.87
2015,08,29,17,52,999.80
2015,08,29,17,53,999.87
2015,08,29,17,54,999.87
2015,08,29,17,55,999.90
2015,08,29,17,56,999.97
2015,08,29,17,57,1000.00
2015,08,29,17,58,999.97
2015,08,29,17,59,999.97
2015,08,29,18,00,1000.00
2015,08,29,18,01,999.97
2015,08,29,18,02,999.87
2015,08,29,18,03,999.76
2015,08,29,18,04,999.87
2015,08,29,18,05,999.63
2015,08,29,18,06,999.63
2015,08,29,18,07,999.56
2015,08,29,18,08,999.66
2015,08,29,18,09,999.70
2015,08,29,18,10,999.66
2015,08,29,18,11,999.66
2015,08,29,18,12,999.70
2015,08,29,18,13,999.73
2015,08,29,18,14,999.76
2015,08,29,18,15,999.90
2015,08,29,18,16,999.93
2015,08,29,18,17,999.70
2015,08,29,18,18,999.60
2015,08,29,18,19,999.70
2015,08,29,18,20,999.66
2015,08,29,18,21,999.49
2015,08,29,18,22,999.69
2015,08,29,18,23,999.76
2015,08,29,18,24,999.73
2015,08,29,18,25,999.66
2015,08,29,18,26,999.59
2015,08,29,18,27,999.63
2015,08,29,18,28,999.90
2015,08,29,18,29,999.90
2015,08,29,18,30,1000.00
2015,08,29,18,31,1000.10
2015,08,29,18,32,1000.03
2015,08,29,18,33,1000.00
2015,08,29,18,34,1000.10
2015,08,29,18,35,1000.27
2015,08,29,18,36,1000.34
2015,08,29,18,37,1000.31
2015,08,29,18,38,1000.20
2015,08,29,18,39,1000.27
2015,08,29,18,40,1000.31
2015,08,29,18,41,1000.31
2015,08,29,18,42,1000.31
2015,08,29,18,43,1000.37
2015,08,29,18,44,1000.37
2015,08,29,18,45,1000.34
2015,08,29,18,46,1000.44
2015,08,29,18,47,1000.54
2015,08,29,18,48,1000.54
2015,08,29,18,49,1000.68
2015,08,29,18,50,1000.54
2015,08,29,18,51,1000.58
2015,08,29,18,52,1000.54
2015,08,29,18,53,1000.58
2015,08,29,18,54,1000.58
2015,08,29,18,55,1000.58
2015,08,29,18,56,1000.64
2015,08,29,18,57,1000.71
2015,08,29,18,58,1000.75
2015,08,29,18,59,1000.78
2015,08,29,19,00,1000.88
2015,08,29,19,01,1000.92
2015,08,29,19,02,1000.95
2015,08,29,19,03,1000.98
2015,08,29,19,04,1001.02
2015,08,29,19,05,1001.02
2015,08,29,19,06,1001.05
2015,08,29,19,07,1001.08
2015,08,29,19,08,1001.05
2015,08,29,19,09,1001.05
2015,08,29,19,10,1001.05
2015,08,29,19,11,1001.08
2015,08,29,19,12,1001.08
2015,08,29,19,13,1001.15
2015,08,29,19,14,1001.12
2015,08,29,19,15,1001.15
2015,08,29,19,16,1001.19
2015,08,29,19,17,1001.29
2015,08,29,19,18,1001.25
2015,08,29,19,19,1001.29
2015,08,29,19,20,1001.19
2015,08,29,19,21,1001.22
2015,08,29,19,22,1001.22
2015,08,29,19,23,1001.15
2015,08,29,19,24,1001.22
2015,08,29,19,25,1001.25
2015,08,29,19,26,1001.22
2015,08,29,19,27,1001.15
2015,08,29,19,28,1001.08
2015,08,29,19,29,1001.08
2015,08,29,19,30,1001.19
2015,08,29,19,31,1001.22
2015,08,29,19,32,1001.25
2015,08,29,19,33,1001.32
2015,08,29,19,34,1001.32
2015,08,29,19,35,1001.32
2015,08,29,19,36,1001.32
2015,08,29,19,37,1001.29
2015,08,29,19,38,1001.22
2015,08,29,19,39,1001.19
2015,08,29,19,40,1001.19
2015,08,29,19,41,1001.22
2015,08,29,19,42,1001.32
2015,08,29,19,43,1001.36
2015,08,29,19,44,1001.46
2015,08,29,19,45,1001.46
2015,08,29,19,46,1001.42
2015,08,29,19,47,1001.42
2015,08,29,19,48,1001.47
2015,08,29,19,49,1001.56
2015,08,29,19,50,1001.49
2015,08,29,19,51,1001.46
2015,08,29,19,52,1001.46
2015,08,29,19,53,1001.46
2015,08,29,19,54,1001.63
2015,08,29,19,55,1001.63
2015,08,29,19,56,1001.59
2015,08,29,19,57,1001.49
2015,08,29,19,58,1001.46
2015,08,29,19,59,1001.42
2015,08,29,20,00,1001.36
2015,08,29,20,01,1001.42
2015,08,29,20,02,1001.42
2015,08,29,20,03,1001.46
2015,08,29,20,04,1001.49
2015,08,29,20,05,1001.52
2015,08,29,20,06,1001.56
2015,08,29,20,07,1001.56
2015,08,29,20,08,1001.63
2015,08,29,20,09,1001.63
2015,08,29,20,10,1001.59
2015,08,29,20,11,1001.59
2015,08,29,20,12,1001.66
2015,08,29,20,13,1001.66
2015,08,29,20,14,1001.69
2015,08,29,20,15,1001.73
2015,08,29,20,16,1001.73
2015,08,29,20,17,1001.69
2015,08,29,20,18,1001.73
2015,08,29,20,19,1001.80
2015,08,29,20,20,1001.70
2015,08,29,20,21,1001.69
2015,08,29,20,22,1001.69
2015,08,29,20,23,1001.73
2015,08,29,20,24,1001.69
2015,08,29,20,25,1001.80
2015,08,29,20,26,1001.80
2015,08,29,20,27,1001.83
2015,08,29,20,28,1001.80
2015,08,29,20,29,1001.80
2015,08,29,20,30,1001.86
2015,08,29,20,31,1001.86
2015,08,29,20,32,1001.93
2015,08,29,20,33,1001.93
2015,08,29,20,34,1001.90
2015,08,29,20,35,1001.90
2015,08,29,20,36,1001.97
2015,08,29,20,37,1002.07
2015,08,29,20,38,1002.10
2015,08,29,20,39,1002.13
2015,08,29,20,40,1002.13